STARLINK-3310 (50835 NORAD) Tracking and Keplerian Element Data

This shows tracking and keplerian element data for the satellite.

Feedback or suggestion? Click here.




ElementValue
Catalog50835
NameSTARLINK-3310
Epoch Orbit2181
Epoch Day140.58334491
Epoch Year2022
RAAN295.0555
Inclination53.2163
Eccentricity0.0002221
Argument of Perigee34.1223
Mean Anonmoly17.3741
Mean Motion15.08842671
Decay Rate-0.0002131
L11 50835U 22001AJ 22140.58334491 -.00021310 00000+0 -13246-2 0 9998
L22 50835 53.2163 295.0555 0002221 34.1223 17.3741 15.08842671 21813

Live tracking and technical data element details for STARLINK-3310 (NORAD 50835). STARLINK-3310 can be tracked NOW for your location showing map with azimuth and elevation plus other details from your city location.

Track the satellite on the map from your city or location and see movement details for azimuth, elevation, latitude, longitude, range, height, and movement on the map or in text.







IsCatalogInMostPopularTable: catalog: 50835, numindb: 24
Update: records affected: 1



GetName: 50835 STARLINK-3310

Hit Count: updated at: Sun, 22 May 2022 05:00:52 GMT